Location: Makakahi
(40.6833°S, 175.6000°E)
Time: 01:13:26
(UTC+00:00)

CZ-4C R/B - Visible Passes

Search period start: 09 October 2024 00:00
Search period end: 19 October 2024 00:00
Orbit: 520 x 1471 km, 63.4° (Epoch: 08 October)

Date Brightness Start Highest point End Pass type
(mag) Time Alt. Az. Time Alt. Az. Time Alt. Az.
09 Oct 5.7 16:55:19 10° NE 17:00:41 18° ENE 17:05:40 10° ESE visible
11 Oct 5.7 16:12:02 10° NE 16:15:46 13° ENE 16:19:20 10° E visible
12 Oct 5.1 16:39:44 10° NNE 16:46:55 28° ENE 16:53:22 10° ESE visible
14 Oct 5.2 15:55:28 10° NNE 16:01:49 22° ENE 16:07:38 10° ESE visible
15 Oct 4.3 16:24:52 10° N 16:33:04 43° ENE 16:40:16 10° SE visible
16 Oct 5.3 15:11:28 10° NE 15:16:41 17° ENE 15:21:33 10° ESE visible
16 Oct 3.4 16:55:40 10° NNW 17:04:33 77° ENE 17:12:05 10° SE visible
17 Oct 4.5 15:40:04 10° N 15:47:48 34° ENE 15:54:40 10° SE visible
18 Oct 5.4 14:28:03 10° NE 14:31:30 13° ENE 14:34:50 10° E visible
18 Oct 3.6 16:10:25 10° NNW 16:19:10 63° ENE 16:26:39 10° SE visible
